Weather in Petrovka

Russia / Omsk Oblast     54°57′33″N   73°02′36″E
temp.,
°C
wind,
m/s
gust,
m/s
humid.,
%
clouds,
%
prec.,
mm/h
press.,
hPa
HPBL,
m
17 september, fri
fri1700:00+14wsw4975100 0.6 998233
03:00+12nw378096 0.3 998182
06:00+9wnw49790 0.3 999234
09:00+10w46610 0.0 999373
12:00+13wsw68405 0.0 9981862
15:00+15wsw91232100 0.0 9972807
18:00+11w812515 0.0 9981495
21:00+7w61162100 0.0 999984
18 september, sat
sat1800:00+8w81359100 0.0 10001439
03:00+6w71172100 0.1 10021221
06:00+6w61074100 0.1 1004809
09:00+6w6973100 0.0 1006925
12:00+8w6958100 0.1 10071431
15:00+9wsw71049100 0.1 10071790
18:00+9wsw5952100 0.1 10071613
21:00+8sw3758100 0.0 1006271
19 september, sun
sun1900:00+7sw5781100 0.5 1005661
03:00+5wsw598973 0.6 1005646
06:00+3wsw511915 0.6 1005325
09:00+5wsw610735 0.0 1005829
12:00+8wsw8105195 0.0 10051818
15:00+6w81163100 0.3 10061371
18:00+6w71168100 0.7 10061286
21:00+4w61186100 0.1 1007857
20 september, mon
mon2000:00+2w71294100 0.3 1008828
03:00+2w71194100 0.3 1010790
06:00+2w61196100 0.4 1012775
09:00+3w61196100 0.3 1014673
12:00+3wnw61096100 0.6 1016804
15:00+3wnw61095100 0.2 1018723
18:00+5nw6872100 0.3 10201021
21:00+4nw4980100 0.1 1022539
21 september, tue
tue2100:00+3wnw4885100 0.2 1023396
03:00+2nw499378 0.1 1024403
06:00+3nw4884100 0.1 1025426
09:00+4nw5775100 0.1 1026656
12:00+5nw566383 0.3 10251165
15:00+6nw675991 0.1 10251370
18:00+5wnw5761100 0.1 10251248
21:00+4wnw4862100 0.0 1024779